Decatur, IL

1:24 AM CDT on April 24, 2017 (GMT -0500)
Decatur

Weather History for KDEC - June, 2012

Change the Weather History Date:

Wednesday, June 13, 2012

  Actual Average Record
Temperature  
Mean Temperature 64 °F 72 °F  
Max Temperature 80 °F 82 °F 92 °F (2016)
Min Temperature 48 °F 61 °F 48 °F (2012)
Degree Days  
Heating Degree Days 1 0  
Month to date heating degree days 13 14  
Since 1 June heating degree days 13 14  
Since 1 July heating degree days 4244 5518  
Cooling Degree Days 0 7  
Month to date cooling degree days 46 74  
Year to date cooling degree days 270 161  
Since 1 June cooling degree days 46 74  
Growing Degree Days 14 (Base 50)    
Moisture  
Dew Point 49 °F    
Average Humidity 59    
Maximum Humidity 86    
Minimum Humidity 32    
Precipitation  
Precipitation 0.00 in 0.16 in 0.62 in (2003)
Month to date precipitation 0.25 2.02  
Year to date precipitation 8.68 16.47  
Sea Level Pressure  
Sea Level Pressure 30.11 in    
Wind  
Wind Speed 7 mph (ENE)    
Max Wind Speed 14 mph    
Max Gust Speed 22 mph    
Visibility 10 miles    
Events      
T = Trace of Precipitation, MM = Missing Value Source: NWS Daily Summary

Daily Weather History Graph

Daily Weather History Graph

Search for Another Location

Airport or City:

Trip Planner

Search our weather history database for the weather conditions in past years. The results will help you decide how hot, cold, wet, or windy it might be!

Date:

Astronomy

Jun. 13, 2012 Rise Set
Actual Time 5:26 AM CDT 8:24 PM CDT
Civil Twilight 4:53 AM CDT 8:57 PM CDT
Nautical Twilight 4:12 AM CDT 9:38 PM CDT
Astronomical Twilight 3:24 AM CDT 10:27 PM CDT
Moon 1:39 AM CDT (6/13) 3:11 PM CDT (6/13)
Length of Visible Light 16h 03m
Length of Day
14h 58m
Waning Crescent, 29% of the Moon is Illuminated
Jun 13
Waning Crescent
Jun 19
New
Jun 26
First Quarter
Jul 3
Full
Jul 10
Last Quarter

Hourly Weather History & Observations

Time (CDT) Temp. Dew Point Humidity Pressure Visibility Wind Dir Wind Speed Gust Speed Precip Events Conditions
12:54 AM 60.1 °F 48.9 °F 67% 30.12 in 10.0 mi NNE 9.2 mph - N/A   Clear
1:54 AM 55.0 °F 48.0 °F 77% 30.13 in 10.0 mi NE 4.6 mph - N/A   Clear
2:54 AM 51.8 °F 46.4 °F 82% 30.14 in 10.0 mi NE 6.9 mph - N/A   Clear
3:54 AM 52.0 °F 46.9 °F 83% 30.14 in 10.0 mi ENE 3.5 mph - N/A   Clear
4:54 AM 50.0 °F 46.0 °F 86% 30.14 in 10.0 mi ENE 3.5 mph - N/A   Clear
6:54 AM 55.9 °F 48.9 °F 77% 30.18 in 10.0 mi Calm Calm - N/A   Clear
7:54 AM 62.1 °F 48.0 °F 60% 30.18 in 10.0 mi East 11.5 mph - N/A   Clear
8:54 AM 64.9 °F 48.9 °F 56% 30.17 in 10.0 mi East 11.5 mph - N/A   Clear
9:54 AM 69.1 °F 50.0 °F 51% 30.17 in 10.0 mi ESE 8.1 mph - N/A   Clear
10:54 AM 72.0 °F 48.9 °F 44% 30.15 in 10.0 mi ESE 10.4 mph - N/A   Clear
11:54 AM 73.0 °F 48.9 °F 42% 30.15 in 10.0 mi Variable 5.8 mph - N/A   Clear
12:54 PM 75.9 °F 46.9 °F 36% 30.13 in 10.0 mi Variable 6.9 mph - N/A   Clear
1:54 PM 78.1 °F 46.9 °F 33% 30.12 in 10.0 mi NE 10.4 mph 16.1 mph N/A   Clear
2:54 PM 79.0 °F 48.0 °F 34% 30.11 in 10.0 mi ENE 11.5 mph - N/A   Clear
3:54 PM 79.0 °F 48.0 °F 34% 30.09 in 10.0 mi ENE 9.2 mph - N/A   Clear
4:54 PM 78.1 °F 48.0 °F 35% 30.09 in 10.0 mi East 11.5 mph - N/A   Clear
5:54 PM 78.1 °F 48.9 °F 36% 30.07 in 10.0 mi ESE 10.4 mph - N/A   Clear
6:54 PM 77.0 °F 50.0 °F 39% 30.06 in 10.0 mi ENE 11.5 mph - N/A   Clear
7:54 PM 72.0 °F 52.0 °F 49% 30.06 in 10.0 mi East 6.9 mph - N/A   Clear
8:54 PM 66.0 °F 52.0 °F 60% 30.05 in 10.0 mi East 4.6 mph - N/A   Clear
9:54 PM 63.0 °F 53.1 °F 70% 30.05 in 10.0 mi East 3.5 mph - N/A   Clear
10:54 PM 62.1 °F 52.0 °F 70% 30.06 in 10.0 mi NE 4.6 mph - N/A   Clear
11:54 PM 57.9 °F 51.1 °F 78% 30.06 in 10.0 mi East 4.6 mph - N/A   Clear